loading
|
Showing default

COSMOS 80, 1570

Orbit data source: Space-Track

COSMOS 80, 1570 is a payload satellite owned by OKB-10 (CIS) in LEO that was launched on Fri, 03 Sep 1965 UTC via a KOSMOS 65S3 launch vehicle from the Tyuratam Missile And Space Complex (TTMTR). Payloads include a variety of satellites, spacecraft, and rockets equipped with specific instruments for various scientific and technological missions. These include communications satellites like Starlink; space stations such as the ISS; scientific satellites like the Hubble; Earth observation satellites from companies like Planet Labs, Umbra, and HawkEye 360; GPS; miniature CubeSats for education and research; and military/defense satellites.

Loading next visibility...
Loading greatness...
COSMOS 80 details
Identifier
1570, 1965-070A
Orbit
LEO
Last TLE update1 day ago
Origin
Flag of CISOKB-10 (CIS)
ManufacturerOKB-10
MissionDefense Communications
Bus & MotorSTRELA-1 11F610, Unknown motor
Mass50 kg wet, 50 kg dry
Launch date (UTC)
1965-09-03 (59 years ago)
Launch vehicle
KOSMOS 65S3
Launch site
Tyuratam Missile And Space Complex (TTMTR)
Object type
Payload
Rocket body
Debris
Shape & HBRPoly, 0.8 m
Radar Cross Section0.731 m², Medium (>0.1 m² and < 1m²)

Expand to show TLE details & history

TLE from 1 day ago
0 COSMOS 80
1  1570U 65070A   24276.53934431 -.00000078  00000-0  11172-3 0  9995
2  1570  56.0593 359.9810 0100713 196.6768 288.6296 12.52786465703763
Epoch: 2024-10-02T12:56Z
Definitive object data (Epoch: 2024-10-02T12:56:39.348Z)
Latitude43.43859°
Longitude-65.27674°
Altitude1,433.065 km
Speed7.161 km/s
True Right ascension09h 22m 29s
True Declination43° 16' 54"
Sunlit
Object was in daylight at TLE epoch
Predictive object data (real-time)
Latitude1.97104°
Longitude-30.08677°
Altitude1,379.737 km
Speed7.204 km/s
Apparent Right ascension14h 19m 11s
Apparent Declination-30° 25' 07"
Sunlit
Object is in daylight
Predictive observer data (real-time)
Local Sidereal Time07:57:53
Azimuth111.428° ESE
Elevation-22.722°
Doppler factor1
Orbital elements
Apogee1,531.551 km
Perigee1,373.818 km
Semi-major axis7,830.821 km
Eccentricity0.0100713
Inclination56.0593°
RAAN359.981°
Arg. of periapsis196.6768°
True anomaly287.53164°
Mean anomaly288.6296°
Eccentric anomaly288.08105°
Mean motion3.13208 °/min
BSTAR0.00011172
Period114.94 mins
No data available
Loading...

COSMOS 80 Visibility forecast

Observer location: 39.9160978°, -105.1181434

COSMOS 80 is not visible in the next 10 days
Span
Click to sort rows by Start time (UTC) header in descending order
Start Az.
Max El. time (UTC)
Max El. Az.
Max El.
End time (UTC)
End Az.